| time (UTC) | temp F | wind direction | speed MPH | gust MPH | rain 1hr in | rain 24hr in | rain mn in | humidity % | barometer mb |
| 20260502220204 | 70 | 251 | 5.0 | 6.0 | 0.00 | 0.00 | 0.00 | 32 | 1013.3 |
| 20260502215701 | 69 | 281 | 6.0 | 11.0 | 0.00 | 0.00 | 0.00 | 33 | 1013.1 |
| 20260502215157 | 70 | 263 | 5.0 | 7.0 | 0.00 | 0.00 | 0.00 | 33 | 1013.0 |
| 20260502214655 | 69 | 258 | 7.0 | 9.0 | 0.00 | 0.00 | 0.00 | 34 | 1012.9 |
| 20260502214152 | 69 | 171 | 2.0 | 8.0 | 0.00 | 0.00 | 0.00 | 37 | 1013.0 |
| 20260502213649 | 70 | 296 | 8.0 | 13.0 | 0.00 | 0.00 | 0.00 | 36 | 1012.7 |
| 20260502213146 | 70 | 276 | 5.0 | 10.0 | 0.00 | 0.00 | 0.00 | 37 | 1012.6 |
| 20260502212645 | 71 | 288 | 3.0 | 8.0 | 0.00 | 0.00 | 0.00 | 37 | 1012.5 |
| 20260502212143 | 71 | 216 | 5.0 | 9.0 | 0.00 | 0.00 | 0.00 | 39 | 1012.5 |
| 20260502211638 | 71 | 242 | 5.0 | 9.0 | 0.00 | 0.00 | 0.00 | 39 | 1012.5 |
| 20260502211135 | 71 | 240 | 2.0 | 9.0 | 0.00 | 0.00 | 0.00 | 40 | 1012.6 |
| 20260502210633 | 71 | 257 | 7.0 | 9.0 | 0.00 | 0.00 | 0.00 | 41 | 1012.5 |
| 20260502210130 | 70 | 267 | 4.0 | 7.0 | 0.00 | 0.00 | 0.00 | 41 | 1012.4 |
| 20260502205626 | 69 | 269 | 8.0 | 13.0 | 0.00 | 0.00 | 0.00 | 41 | 1012.4 |
| 20260502205123 | 69 | 241 | 3.0 | 9.0 | 0.00 | 0.00 | 0.00 | 43 | 1012.2 |
| 20260502204620 | 70 | 247 | 2.0 | 7.0 | 0.00 | 0.00 | 0.00 | 45 | 1012.3 |
| 20260502204118 | 69 | 276 | 5.0 | 8.0 | 0.00 | 0.00 | 0.00 | 46 | 1012.5 |
| 20260502203615 | 69 | 278 | 7.0 | 11.0 | 0.00 | 0.00 | 0.00 | 45 | 1012.5 |
| 20260502203112 | 68 | 247 | 4.0 | 7.0 | 0.00 | 0.00 | 0.00 | 47 | 1012.3 |
| 20260502202607 | 69 | 224 | 4.0 | 6.0 | 0.00 | 0.00 | 0.00 | 44 | 1012.4 |
| 20260502202105 | 69 | 245 | 4.0 | 8.0 | 0.00 | 0.00 | 0.00 | 45 | 1012.4 |
| 20260502201556 | 71 | 254 | 4.0 | 10.0 | 0.00 | 0.00 | 0.00 | 43 | 1012.6 |
| 20260502201053 | 70 | 255 | 4.0 | 7.0 | 0.00 | 0.00 | 0.00 | 45 | 1012.4 |
| 20260502200548 | 69 | 239 | 3.0 | 7.0 | 0.00 | 0.00 | 0.00 | 49 | 1012.6 |
| 20260502200046 | 68 | 248 | 1.0 | 4.0 | 0.00 | 0.00 | 0.00 | 52 | 1012.5 |
| 20260502195544 | 69 | 228 | 2.0 | 7.0 | 0.00 | 0.00 | 0.00 | 51 | 1012.7 |
| 20260502195040 | 72 | 252 | 4.0 | 9.0 | 0.00 | 0.00 | 0.00 | 48 | 1012.5 |
| 20260502194536 | 73 | 227 | 1.0 | 9.0 | 0.00 | 0.00 | 0.00 | 48 | 1012.7 |
| 20260502194032 | 71 | 241 | 4.0 | 6.0 | 0.00 | 0.00 | 0.00 | 48 | 1012.6 |
| 20260502193530 | 70 | 242 | 6.0 | 8.0 | 0.00 | 0.00 | 0.00 | 49 | 1012.5 |
| 20260502193026 | 68 | 175 | 4.0 | 10.0 | 0.00 | 0.00 | 0.00 | 52 | 1012.7 |
| 20260502192522 | 68 | 264 | 3.0 | 6.0 | 0.00 | 0.00 | 0.00 | 53 | 1013.0 |
| 20260502192020 | 70 | 262 | 2.0 | 8.0 | 0.00 | 0.00 | 0.00 | 51 | 1012.9 |
| 20260502191516 | 70 | 255 | 2.0 | 6.0 | 0.00 | 0.00 | 0.00 | 49 | 1012.8 |
| 20260502191014 | 70 | 212 | 1.0 | 6.0 | 0.00 | 0.00 | 0.00 | 52 | 1012.8 |
| 20260502190511 | 72 | 10 | 2.0 | 2.0 | 0.00 | 0.00 | 0.00 | 47 | 1013.0 |
| 20260502190008 | 71 | 254 | 2.0 | 6.0 | 0.00 | 0.00 | 0.00 | 51 | 1012.8 |
| 20260502185503 | 69 | 49 | 0.0 | 3.0 | 0.00 | 0.00 | 0.00 | 52 | 1013.0 |
| 20260502185001 | 69 | 52 | 1.0 | 6.0 | 0.00 | 0.00 | 0.00 | 52 | 1013.1 |
| 20260502184455 | 70 | 256 | 2.0 | 6.0 | 0.00 | 0.00 | 0.00 | 52 | 1013.0 |
| 20260502183952 | 70 | 297 | 2.0 | 4.0 | 0.00 | 0.00 | 0.00 | 50 | 1013.0 |
| 20260502183448 | 68 | 233 | 2.0 | 4.0 | 0.00 | 0.00 | 0.00 | 52 | 1013.0 |
| 20260502182943 | 71 | 244 | 0.0 | 2.0 | 0.00 | 0.00 | 0.00 | 52 | 1013.1 |
| 20260502182439 | 70 | 250 | 0.0 | 3.0 | 0.00 | 0.00 | 0.00 | 56 | 1013.1 |
| 20260502181935 | 67 | 255 | 2.0 | 3.0 | 0.00 | 0.00 | 0.00 | 58 | 1013.1 |
| 20260502181434 | 68 | 255 | 1.0 | 6.0 | 0.00 | 0.00 | 0.00 | 55 | 1013.1 |
| 20260502180932 | 72 | 267 | 5.0 | 7.0 | 0.00 | 0.00 | 0.00 | 51 | 1013.2 |
| 20260502180429 | 70 | 209 | 0.0 | 4.0 | 0.00 | 0.00 | 0.00 | 57 | 1013.3 |
| 20260502170348 | 67 | 200 | 0.0 | 3.0 | 0.00 | 0.00 | 0.00 | 66 | 1013.8 |
| 20260502164335 | 67 | 215 | 0.0 | 1.0 | 0.00 | 0.00 | 0.00 | 68 | 1014.1 |
| 20260502163831 | 65 | 38 | 4.0 | 4.0 | 0.00 | 0.00 | 0.00 | 68 | 1014.2 |
| 20260502163327 | 68 | 25 | 2.0 | 3.0 | 0.00 | 0.00 | 0.00 | 65 | 1014.4 |
| 20260502162825 | 67 | 26 | 0.0 | 4.0 | 0.00 | 0.00 | 0.00 | 70 | 1014.3 |
| 20260502162322 | 67 | 60 | 2.0 | 3.0 | 0.00 | 0.00 | 0.00 | 68 | 1014.4 |
| 20260502161819 | 65 | 228 | 0.0 | 4.0 | 0.00 | 0.00 | 0.00 | 69 | 1014.4 |
| 20260502161315 | 67 | 103 | 2.0 | 3.0 | 0.00 | 0.00 | 0.00 | 68 | 1014.6 |
| 20260502160813 | 66 | 109 | 1.0 | 3.0 | 0.00 | 0.00 | 0.00 | 70 | 1014.6 |
| 20260502160312 | 64 | 5 | 4.0 | 4.0 | 0.00 | 0.00 | 0.00 | 70 | 1014.6 |
| 20260502152235 | 61 | 6 | 2.0 | 3.0 | 0.00 | 0.00 | 0.00 | 75 | 1014.5 |
| 20260502151733 | 60 | 52 | 1.0 | 3.0 | 0.00 | 0.00 | 0.00 | 75 | 1014.4 |
| 20260502151230 | 60 | 12 | 2.0 | 3.0 | 0.00 | 0.00 | 0.00 | 75 | 1014.6 |
| 20260502150727 | 61 | 20 | 3.0 | 4.0 | 0.00 | 0.00 | 0.00 | 73 | 1014.6 |
| 20260502150224 | 61 | 67 | 0.0 | 1.0 | 0.00 | 0.00 | 0.00 | 73 | 1014.7 |
| 20260502130613 | 58 | 234 | 0.0 | 1.0 | 0.00 | 0.00 | 0.00 | 79 | 1013.7 |
| 20260502130110 | 58 | 240 | 1.0 | 2.0 | 0.00 | 0.00 | 0.00 | 78 | 1013.6 |
| 20260502123555 | 56 | 240 | 0.0 | 2.0 | 0.00 | 0.00 | 0.00 | 81 | 1013.6 |
| 20260502123052 | 56 | 237 | 1.0 | 2.0 | 0.00 | 0.00 | 0.00 | 82 | 1014.2 |
| 20260502122548 | 56 | 238 | 1.0 | 2.0 | 0.00 | 0.00 | 0.00 | 82 | 1013.5 |
| 20260502122045 | 57 | 237 | 1.0 | 4.0 | 0.00 | 0.00 | 0.00 | 81 | 1013.5 |
| 20260502121543 | 57 | 239 | 0.0 | 2.0 | 0.00 | 0.00 | 0.00 | 82 | 1013.6 |
| 20260502121040 | 56 | 233 | 1.0 | 3.0 | 0.00 | 0.00 | 0.00 | 82 | 1013.6 |
| 20260502120536 | 56 | 240 | 1.0 | 3.0 | 0.00 | 0.00 | 0.00 | 83 | 1013.3 |
| 20260502115531 | 55 | 249 | 1.0 | 1.0 | 0.00 | 0.00 | 0.00 | 87 | 1012.7 |
| 20260502115027 | 55 | 235 | 0.0 | 0.0 | 0.00 | 0.00 | 0.00 | 87 | 1013.1 |
| 20260502114524 | 55 | 234 | 0.0 | 0.0 | 0.00 | 0.00 | 0.00 | 85 | 1013.3 |
| 20260502114020 | 55 | 234 | 0.0 | 0.0 | 0.00 | 0.00 | 0.00 | 83 | 1013.5 |
| 20260502113518 | 56 | 233 | 0.0 | 0.0 | 0.00 | 0.00 | 0.00 | 85 | 1013.3 |
| 20260502113017 | 56 | 241 | 1.0 | 1.0 | 0.00 | 0.00 | 0.00 | 83 | 1013.7 |
| 20260502112514 | 56 | 237 | 0.0 | 0.0 | 0.00 | 0.00 | 0.00 | 82 | 1013.5 |
| 20260502112012 | 56 | 241 | 0.0 | 0.0 | 0.00 | 0.00 | 0.00 | 80 | 1013.6 |
| 20260502111509 | 56 | 231 | 0.0 | 1.0 | 0.00 | 0.00 | 0.00 | 81 | 1013.5 |
| 20260502111006 | 56 | 235 | 0.0 | 1.0 | 0.00 | 0.00 | 0.00 | 81 | 1013.6 |
| 20260502110503 | 56 | 248 | 1.0 | 1.0 | 0.00 | 0.00 | 0.00 | 81 | 1013.3 |
| 20260502110001 | 56 | 237 | 0.0 | 1.0 | 0.00 | 0.00 | 0.00 | 81 | 1013.4 |
| 20260502105458 | 56 | 232 | 0.0 | 1.0 | 0.00 | 0.00 | 0.00 | 81 | 1013.3 |
| 20260502104955 | 56 | 233 | 2.0 | 3.0 | 0.00 | 0.00 | 0.00 | 81 | 1013.1 |
| 20260502104453 | 56 | 232 | 1.0 | 2.0 | 0.00 | 0.00 | 0.00 | 82 | 1013.1 |
| 20260502103950 | 56 | 239 | 2.0 | 2.0 | 0.00 | 0.00 | 0.00 | 82 | 1013.1 |
| 20260502103448 | 56 | 235 | 1.0 | 1.0 | 0.00 | 0.00 | 0.00 | 81 | 1012.6 |
| 20260502102945 | 56 | 235 | 1.0 | 2.0 | 0.00 | 0.00 | 0.00 | 82 | 1012.7 |
| 20260502102442 | 56 | 246 | 1.0 | 2.0 | 0.00 | 0.00 | 0.00 | 82 | 1012.4 |
| 20260502101938 | 56 | 243 | 0.0 | 1.0 | 0.00 | 0.00 | 0.00 | 83 | 1012.2 |
| 20260502101437 | 56 | 241 | 0.0 | 1.0 | 0.00 | 0.00 | 0.00 | 83 | 1012.5 |
| 20260502100935 | 56 | 246 | 0.0 | 1.0 | 0.00 | 0.00 | 0.00 | 83 | 1012.4 |
| 20260502100434 | 56 | 246 | 0.0 | 1.0 | 0.00 | 0.00 | 0.00 | 83 | 1012.5 |
| 20260502091408 | 54 | 241 | 0.0 | 0.0 | 0.00 | 0.00 | 0.00 | 92 | 1012.7 |
| 20260502090904 | 55 | 235 | 0.0 | 0.0 | 0.00 | 0.00 | 0.00 | 92 | 1012.4 |
| 20260502090401 | 55 | 235 | 0.0 | 0.0 | 0.00 | 0.00 | 0.00 | 91 | 1012.7 |
| 20260502071256 | 57 | 241 | 0.0 | 1.0 | 0.00 | 0.00 | 0.00 | 76 | 1013.4 |
| 20260502070754 | 58 | 241 | 1.0 | 1.0 | 0.00 | 0.00 | 0.00 | 76 | 1013.6 |
| 20260502070252 | 58 | 248 | 1.0 | 1.0 | 0.00 | 0.00 | 0.00 | 76 | 1013.7 |
| 20260502065750 | 58 | 252 | 1.0 | 2.0 | 0.00 | 0.00 | 0.00 | 75 | 1013.7 |
| 20260502065248 | 58 | 252 | 2.0 | 2.0 | 0.00 | 0.00 | 0.00 | 74 | 1013.8 |
| 20260502064746 | 59 | 237 | 1.0 | 2.0 | 0.00 | 0.00 | 0.00 | 73 | 1013.2 |
| 20260502064243 | 59 | 246 | 2.0 | 3.0 | 0.00 | 0.00 | 0.00 | 72 | 1013.5 |
| 20260502063741 | 59 | 251 | 2.0 | 3.0 | 0.00 | 0.00 | 0.00 | 71 | 1013.3 |
| 20260502063238 | 59 | 255 | 2.0 | 3.0 | 0.00 | 0.00 | 0.00 | 71 | 1013.4 |
| 20260502062735 | 59 | 247 | 2.0 | 2.0 | 0.00 | 0.00 | 0.00 | 72 | 1013.2 |
| 20260502062233 | 59 | 240 | 1.0 | 2.0 | 0.00 | 0.00 | 0.00 | 72 | 1013.6 |
| 20260502061731 | 59 | 240 | 0.0 | 1.0 | 0.00 | 0.00 | 0.00 | 71 | 1013.5 |
| 20260502061229 | 60 | 239 | 0.0 | 2.0 | 0.00 | 0.00 | 0.00 | 68 | 1013.6 |
| 20260502060724 | 59 | 229 | 0.0 | 0.0 | 0.00 | 0.00 | 0.00 | 67 | 1013.7 |
| 20260502060220 | 59 | 242 | 0.0 | 1.0 | 0.00 | 0.00 | 0.00 | 68 | 1013.5 |
| 20260502055718 | 59 | 230 | 0.0 | 0.0 | 0.00 | 0.00 | 0.00 | 69 | 1013.8 |
| 20260502055215 | 60 | 238 | 0.0 | 1.0 | 0.00 | 0.00 | 0.00 | 69 | 1013.6 |
| 20260502054715 | 60 | 230 | 0.0 | 1.0 | 0.00 | 0.00 | 0.00 | 67 | 1013.7 |
| 20260502054211 | 60 | 232 | 0.0 | 1.0 | 0.00 | 0.00 | 0.00 | 67 | 1013.7 |
| 20260502053709 | 60 | 229 | 0.0 | 2.0 | 0.00 | 0.00 | 0.00 | 65 | 1013.6 |
| 20260502053206 | 60 | 232 | 0.0 | 2.0 | 0.00 | 0.00 | 0.00 | 65 | 1013.6 |
| 20260502052704 | 60 | 238 | 0.0 | 1.0 | 0.00 | 0.00 | 0.00 | 68 | 1013.8 |
| 20260502052202 | 60 | 251 | 0.0 | 1.0 | 0.00 | 0.00 | 0.00 | 65 | 1014.1 |
| 20260502051700 | 60 | 240 | 0.0 | 1.0 | 0.00 | 0.00 | 0.00 | 66 | 1013.8 |
| 20260502051158 | 60 | 210 | 0.0 | 0.0 | 0.00 | 0.00 | 0.00 | 66 | 1014.0 |
| 20260502050654 | 61 | 229 | 0.0 | 0.0 | 0.00 | 0.00 | 0.00 | 64 | 1013.8 |
| 20260502050150 | 61 | 235 | 1.0 | 6.0 | 0.00 | 0.00 | 0.00 | 62 | 1014.0 |
| 20260502045647 | 61 | 247 | 2.0 | 3.0 | 0.00 | 0.00 | 0.00 | 63 | 1014.1 |
| 20260502045145 | 61 | 235 | 0.0 | 2.0 | 0.00 | 0.00 | 0.00 | 64 | 1013.6 |
| 20260502044641 | 61 | 246 | 3.0 | 4.0 | 0.00 | 0.00 | 0.00 | 64 | 1014.2 |
| 20260502044137 | 61 | 215 | 0.0 | 1.0 | 0.00 | 0.00 | 0.00 | 65 | 1014.2 |
| 20260502043635 | 61 | 247 | 1.0 | 2.0 | 0.00 | 0.00 | 0.00 | 64 | 1014.0 |
| 20260502043133 | 61 | 228 | 1.0 | 4.0 | 0.00 | 0.00 | 0.00 | 64 | 1014.1 |
| 20260502042626 | 62 | 228 | 2.0 | 3.0 | 0.00 | 0.00 | 0.00 | 64 | 1014.1 |
| 20260502042123 | 61 | 255 | 3.0 | 9.0 | 0.00 | 0.00 | 0.00 | 62 | 1014.4 |
| 20260502041621 | 60 | 231 | 0.0 | 3.0 | 0.00 | 0.00 | 0.00 | 66 | 1014.5 |
| 20260502041118 | 59 | 235 | 0.0 | 1.0 | 0.00 | 0.00 | 0.00 | 69 | 1014.3 |
| 20260502040615 | 59 | 228 | 0.0 | 1.0 | 0.00 | 0.00 | 0.00 | 73 | 1014.6 |
| 20260502040112 | 60 | 240 | 0.0 | 0.0 | 0.00 | 0.00 | 0.00 | 73 | 1014.2 |
| 20260502035608 | 60 | 240 | 0.0 | 0.0 | 0.00 | 0.00 | 0.00 | 72 | 1014.4 |
| 20260502035105 | 60 | 237 | 0.0 | 1.0 | 0.00 | 0.00 | 0.00 | 73 | 1014.3 |
| 20260502034603 | 60 | 253 | 0.0 | 1.0 | 0.00 | 0.00 | 0.00 | 74 | 1014.1 |
| 20260502034101 | 60 | 239 | 1.0 | 1.0 | 0.00 | 0.00 | 0.00 | 73 | 1014.3 |
| 20260502033559 | 60 | 203 | 1.0 | 2.0 | 0.00 | 0.00 | 0.00 | 73 | 1014.4 |
| 20260502033056 | 60 | 220 | 0.0 | 0.0 | 0.00 | 0.00 | 0.00 | 73 | 1014.4 |
| 20260502032552 | 60 | 232 | 1.0 | 1.0 | 0.00 | 0.00 | 0.00 | 72 | 1014.4 |
| 20260502032049 | 60 | 231 | 0.0 | 1.0 | 0.00 | 0.00 | 0.00 | 73 | 1014.6 |
| 20260502031547 | 60 | 239 | 1.0 | 2.0 | 0.00 | 0.00 | 0.00 | 73 | 1014.8 |
| 20260502031044 | 60 | 240 | 1.0 | 2.0 | 0.00 | 0.00 | 0.00 | 73 | 1014.7 |
| 20260502030543 | 60 | 242 | 2.0 | 3.0 | 0.00 | 0.00 | 0.00 | 73 | 1014.8 |
| 20260502030040 | 60 | 222 | 3.0 | 4.0 | 0.00 | 0.00 | 0.00 | 73 | 1014.9 |
| 20260502025537 | 60 | 257 | 2.0 | 4.0 | 0.00 | 0.00 | 0.00 | 73 | 1014.9 |
| 20260502025036 | 60 | 266 | 1.0 | 2.0 | 0.00 | 0.00 | 0.00 | 73 | 1014.9 |
| 20260502024533 | 60 | 252 | 3.0 | 3.0 | 0.00 | 0.00 | 0.00 | 73 | 1014.8 |
| 20260502024031 | 60 | 257 | 2.0 | 3.0 | 0.00 | 0.00 | 0.00 | 73 | 1014.9 |
| 20260502023528 | 60 | 242 | 2.0 | 2.0 | 0.00 | 0.00 | 0.00 | 72 | 1015.1 |
| 20260502023025 | 61 | 235 | 1.0 | 3.0 | 0.00 | 0.00 | 0.00 | 72 | 1014.9 |
| 20260502022522 | 60 | 234 | 2.0 | 3.0 | 0.00 | 0.00 | 0.00 | 72 | 1014.9 |
| 20260502022020 | 60 | 238 | 1.0 | 2.0 | 0.00 | 0.00 | 0.00 | 72 | 1014.7 |
| 20260502021517 | 60 | 240 | 1.0 | 2.0 | 0.00 | 0.00 | 0.00 | 72 | 1014.7 |
| 20260502021014 | 60 | 251 | 1.0 | 2.0 | 0.00 | 0.00 | 0.00 | 72 | 1014.8 |
| 20260502020511 | 60 | 247 | 1.0 | 2.0 | 0.00 | 0.00 | 0.00 | 72 | 1014.9 |
| 20260502020008 | 60 | 247 | 1.0 | 2.0 | 0.00 | 0.00 | 0.00 | 72 | 1014.7 |
| 20260502015506 | 60 | 248 | 1.0 | 2.0 | 0.00 | 0.00 | 0.00 | 72 | 1014.5 |
| 20260502015002 | 60 | 240 | 1.0 | 2.0 | 0.00 | 0.00 | 0.00 | 71 | 1014.8 |
| 20260502014459 | 60 | 231 | 1.0 | 2.0 | 0.00 | 0.00 | 0.00 | 72 | 1014.4 |
| 20260502013956 | 60 | 237 | 0.0 | 1.0 | 0.00 | 0.00 | 0.00 | 72 | 1014.4 |
| 20260502013451 | 60 | 239 | 0.0 | 0.0 | 0.00 | 0.00 | 0.00 | 73 | 1014.4 |
| 20260502012948 | 60 | 244 | 0.0 | 0.0 | 0.00 | 0.00 | 0.00 | 73 | 1014.4 |
| 20260502012446 | 60 | 239 | 0.0 | 0.0 | 0.00 | 0.00 | 0.00 | 74 | 1014.0 |
| 20260502011943 | 60 | 234 | 0.0 | 0.0 | 0.00 | 0.00 | 0.00 | 74 | 1013.8 |
| 20260502011439 | 60 | 235 | 0.0 | 0.0 | 0.00 | 0.00 | 0.00 | 73 | 1014.1 |
| 20260502010936 | 61 | 231 | 0.0 | 0.0 | 0.00 | 0.00 | 0.00 | 73 | 1014.4 |
| 20260502010432 | 61 | 221 | 0.0 | 1.0 | 0.00 | 0.00 | 0.00 | 73 | 1014.3 |
| 20260502005929 | 61 | 233 | 0.0 | 0.0 | 0.00 | 0.00 | 0.00 | 73 | 1014.1 |
| 20260502005427 | 61 | 228 | 0.0 | 0.0 | 0.00 | 0.00 | 0.00 | 73 | 1014.2 |
| 20260502004925 | 61 | 223 | 0.0 | 0.0 | 0.00 | 0.00 | 0.00 | 72 | 1014.1 |
| 20260502004420 | 61 | 228 | 0.0 | 0.0 | 0.00 | 0.00 | 0.00 | 72 | 1014.3 |
| 20260502003918 | 61 | 235 | 0.0 | 0.0 | 0.00 | 0.00 | 0.00 | 73 | 1014.3 |
| 20260502003415 | 61 | 231 | 0.0 | 0.0 | 0.00 | 0.00 | 0.00 | 72 | 1014.1 |
| 20260502002911 | 61 | 235 | 0.0 | 1.0 | 0.00 | 0.00 | 0.00 | 71 | 1014.1 |
| 20260502002409 | 61 | 221 | 0.0 | 1.0 | 0.00 | 0.00 | 0.00 | 71 | 1014.2 |
| 20260502001906 | 61 | 223 | 0.0 | 0.0 | 0.00 | 0.00 | 0.00 | 71 | 1014.0 |
| 20260502001403 | 62 | 223 | 0.0 | 0.0 | 0.00 | 0.00 | 0.00 | 71 | 1013.8 |
| 20260502000901 | 62 | 223 | 0.0 | 0.0 | 0.00 | 0.00 | 0.00 | 69 | 1014.0 |
| 20260502000402 | 62 | 228 | 0.0 | 0.0 | 0.00 | 0.00 | 0.00 | 68 | 1013.4 |
| 20260501235855 | 63 | 240 | 0.0 | 1.0 | 0.00 | 0.00 | 0.00 | 65 | 1013.7 |
| 20260501235351 | 63 | 250 | 1.0 | 1.0 | 0.00 | 0.00 | 0.00 | 65 | 1013.5 |
| 20260501234846 | 63 | 258 | 1.0 | 2.0 | 0.00 | 0.00 | 0.00 | 64 | 1013.6 |
| 20260501234343 | 63 | 244 | 1.0 | 2.0 | 0.00 | 0.00 | 0.00 | 64 | 1013.5 |
| 20260501233842 | 63 | 242 | 2.0 | 2.0 | 0.00 | 0.00 | 0.00 | 63 | 1013.5 |
| 20260501233339 | 63 | 250 | 1.0 | 2.0 | 0.00 | 0.00 | 0.00 | 63 | 1013.5 |
| 20260501232834 | 63 | 237 | 0.0 | 1.0 | 0.00 | 0.00 | 0.00 | 63 | 1013.6 |
| 20260501232332 | 63 | 254 | 1.0 | 1.0 | 0.00 | 0.00 | 0.00 | 61 | 1013.6 |
| 20260501231829 | 63 | 238 | 1.0 | 1.0 | 0.00 | 0.00 | 0.00 | 62 | 1013.6 |
| 20260501231327 | 64 | 238 | 1.0 | 1.0 | 0.00 | 0.00 | 0.00 | 61 | 1013.8 |
| 20260501230825 | 64 | 229 | 1.0 | 2.0 | 0.00 | 0.00 | 0.00 | 61 | 1013.7 |
| 20260501230324 | 64 | 246 | 1.0 | 1.0 | 0.00 | 0.00 | 0.00 | 62 | 1013.6 |
| 20260501225821 | 64 | 235 | 0.0 | 0.0 | 0.00 | 0.00 | 0.00 | 62 | 1013.3 |
| 20260501225319 | 64 | 237 | 0.0 | 1.0 | 0.00 | 0.00 | 0.00 | 61 | 1013.5 |
| 20260501224815 | 64 | 235 | 0.0 | 2.0 | 0.00 | 0.00 | 0.00 | 60 | 1013.2 |
| 20260501224312 | 65 | 235 | 0.0 | 1.0 | 0.00 | 0.00 | 0.00 | 65 | 1013.2 |
| 20260501223808 | 65 | 232 | 0.0 | 1.0 | 0.00 | 0.00 | 0.00 | 63 | 1013.0 |
| 20260501223304 | 65 | 237 | 0.0 | 1.0 | 0.00 | 0.00 | 0.00 | 57 | 1013.2 |
| 20260501222800 | 65 | 240 | 0.0 | 1.0 | 0.00 | 0.00 | 0.00 | 58 | 1013.3 |
| 20260501222258 | 65 | 241 | 1.0 | 3.0 | 0.00 | 0.00 | 0.00 | 58 | 1013.1 |
| 20260501221755 | 65 | 244 | 2.0 | 2.0 | 0.00 | 0.00 | 0.00 | 56 | 1013.1 |
| 20260501221252 | 66 | 245 | 1.0 | 1.0 | 0.00 | 0.00 | 0.00 | 58 | 1013.4 |
| 20260501220750 | 66 | 235 | 0.0 | 0.0 | 0.00 | 0.00 | 0.00 | 54 | 1013.3 |